Find Starlink 4035

NORAD ID: 52690 Int'l Des: 2022-053 Owner: SPXS Country: US Constellation: starlink operational
LEOCIRCULAR

Live-Position

3D-Globus wird geladen...

Über Starlink 4035

Beschreibung wird geladen...

Nächste Überflüge

Passes for default location (London). Set your location on the main map for personalized predictions.

Höhenverlauf

Loading altitude history...

Zweizeiliger Elementsatz

1 52690U 22053AL 26107.01938943 .00000328 00000-0 38704-4 0 9996
2 52690 53.2177 332.0509 0001443 90.1560 269.9598 15.08841053216905
Epoch: 17. Apr. 2026 • Age: 15 hours

Aktueller Status

Höhe 545.9 km
Geschwindigkeit 7.59 km/s
Subsatellitenpunkt -20.65°S, 84.47°E
Startdatum 18. Mai 2022
Alter 3.9 years
Typ internet

Technische Details

Klassifizierung Payload
Masse 297.00 kg
Trockenmasse 275.00 kg
Gesamtmasse 297.00 kg
Länge 0.20 m
Durchmesser 2.80 m
Spannweite 9.00 m
Form Box + pan
Hersteller SPXS
Bus-Typ Starlink
Phasenstatus In Orbit
Besitzer/Staat SPXS/US

Most Searched